Location: Newark
(7.0858°N, 171.3717°E)
Time: 19:36:49
(UTC+00:00)

Vanguard 2 - Pass Details

Date: 26 November 2020
Orbit: 553 x 2937 km, 32.9° (Epoch: 17 January)

Event Time Altitude Azimuth Distance (km) Brightness Sun altitude
Rises 14:49:37 0° 210° (SSW) 6,789 12.3 -51.7°
Reaches altitude 10° 15:02:04 10° 174° (S) 5,495 12.0 -48.9°
Maximum altitude 15:04:05 10° 167° (SSE) 5,379 12.1 -48.4°
Drops below altitude 10° 15:06:03 10° 160° (SSE) 5,303 12.1 -48.0°
Sets 15:16:08 0° 123° (ESE) 5,608 12.7 -45.7°
